Regional Weather Roundup
Issued by NWS

Home | Current Version | Previous Version | Text Only | Print | Product List | Glossary On
Versions: 1 2 3 4 5 6 7 8 9 10 11 12 13 14 15 16 17 18 19 20 21 22 23 24 25 26 27 28 29 30 31 32 33 34 35 36 37 38 39 40 41 42 43 44 45 46 47 48 49 50
000
ASUS43 KMKX 021121
RWRWI

WISCONSIN REGIONAL WEATHER ROUNDUP
NATIONAL WEATHER SERVICE MILWAUKEE/SULLIVAN WI
500 AM CST MON MAR 02 2015

NOTE: "FAIR" INDICATES FEW OR NO CLOUDS BELOW 12,000 FEET WITH NO
SIGNIFICANT WEATHER AND/OR OBSTRUCTIONS TO VISIBILITY.

WIZ001-002-006>008-014>016-023>028-021200-
NORTHWEST WISCONSIN

CITY           SKY/WX    TMP DP  RH WIND       PRES   REMARKS
SUPERIOR ARPT  PTCLDY     8   4  81 SW6       30.41S WCI  -2
ASHLAND        CLEAR      8   3  80 SW7       30.39R WCI  -3
HAYWARD        CLEAR     -2  -6  83 CALM      30.38R
SIREN          PTCLDY     1  -3  82 CALM      30.42R
CUMBERLAND     FAIR       5   3  92 CALM      30.39S
RICE LAKE      FAIR       2  -1  85 CALM      30.42S
CHETEK         FAIR       7   3  85 CALM      30.41S
LADYSMITH      CLEAR      6   2  83 W3        30.40R
EAU CLAIRE     CLEAR      7   2  80 SW5       30.43R WCI  -2
MENOMONIE      FAIR      12   5  76 W3        30.44R
NEW RICHMOND   PTCLDY     4   1  86 W5        30.45R WCI  -5
OSCEOLA        PTCLDY     3   0  86 CALM      30.48R
$$

WIZ003>005-009-010-017-018-021200-
NORTH CENTRAL WISCONSIN

CITY           SKY/WX    TMP DP  RH WIND       PRES   REMARKS
MANITOWISH WTR CLOUDY    11   5  76 W10       30.30R WCI  -2
ARBOR VITAE    FLURRIES  14   6  70 NW10      30.30R WCI   1
WOODRUFF       FLURRIES  14   6  70 NW10      30.30R WCI   1
RHINELANDER    CLOUDY    13   2  61 NW6       30.31R WCI   4
EAGLE RIVER    FLURRIES  13   6  73 W8        30.27R WCI   2
LAND O LAKES   FLURRIES  14   8  74 NW7       30.27R WCI   4
PHILLIPS       PTCLDY     8   3  82 CALM      30.34R
TOMAHAWK       MOCLDY    10   3  74 CALM      30.33R
MEDFORD        CLEAR      6   2  85 NW6       30.34R WCI  -5
MERRILL        FLURRIES   8   4  83 W3        30.34R
$$

WIZ029-030-035-036-043>047-021200-
CENTRAL WISCONSIN

CITY           SKY/WX    TMP DP  RH WIND       PRES   REMARKS
WAUSAU         PTCLDY    10   5  80 W8        30.34R WCI  -2
MOSINEE        CLEAR     10   7  85 NW9       30.36R WCI  -2
MARSHFIELD     CLEAR     10   4  76 NW9       30.37R WCI  -3
STEVENS POINT  CLEAR     11   5  76 NW6       30.38R WCI   2
WAUPACA        CLEAR     14   7  75 W5        30.39R WCI   6
WAUTOMA        CLEAR     11   6  80 NW7       30.41R WCI   0
WISC RAPIDS    CLEAR      9   4  80 W5        30.41R WCI   1
CAMP DOUGLAS   CLEAR     10   9  95 W8        30.41R WCI  -2
$$

WIZ011>013-019>022-031-037>040-048>050-021200-
NORTHEAST WISCONSIN

CITY           SKY/WX    TMP DP  RH WIND       PRES   REMARKS
ANTIGO         CLEAR      8   4  81 NW7       30.31R WCI  -3
SHAWANO        CLEAR     15   8  72 W3        30.38R
OCONTO         CLEAR     10   5  78 W5        30.37R WCI   2
STURGEON BAY   CLEAR     14   5  67 W9        30.37R WCI   2
GREEN BAY      CLEAR     13   7  77 W7        30.37R WCI   3
MANITOWOC      CLEAR     15   9  76 W10       30.38R WCI   2
APPLETON       NOT AVBL
CLINTONVILLE   CLEAR     12   7  79 W7        30.37R WCI   2
OSHKOSH        CLEAR     14   6  70 W6        30.38R WCI   5
$$

WIZ032>034-041-042-053>061-021200-
SOUTHWEST WISCONSIN

CITY           SKY/WX    TMP DP  RH WIND       PRES   REMARKS
LA CROSSE      CLEAR     10   7  87 N6        30.44R WCI   0
SPARTA         CLEAR      1  -3  83 CALM      30.44R
VIROQUA        CLEAR     11  10  93 NW3       30.38R
BOSCOBEL       FAIR       2  -2  83 CALM      30.46R
PRAIRIE DU CHI PTCLDY     8   4  85 CALM      30.47R
PLATTEVILLE    PTCLDY     8   6  90 SW5       30.43R WCI   0
$$

WIZ056-057-062-063-064-067-068-021200-
SOUTH CENTRAL WISCONSIN

CITY           SKY/WX    TMP DP  RH WIND       PRES   REMARKS
REEDSBURG      CLEAR      6   3  88 CALM      30.42R
BARABOO/DELLS  CLEAR     10   6  84 CALM      30.41R
LONE ROCK      CLEAR     -1  -5  82 CALM      30.44R
MINERAL POINT  CLEAR     12   9  85 CALM      30.41R
MADISON        CLEAR      9   4  80 CALM      30.42R
MIDDLETON      CLEAR     13   8  81 CALM      30.42S
WATERTOWN      CLEAR     10   6  84 CALM      30.40S
MONROE         PTCLDY    14  10  85 W13       30.41R WCI   0
JANESVILLE     PTCLDY    12   9  85 CALM      30.43R
$$

WIZ051-052-058>065-066-070>072-021200-
SOUTHEAST WISCONSIN

CITY           SKY/WX    TMP DP  RH WIND       PRES   REMARKS
MILWAUKEE      CLEAR     16   7  67 W8        30.42R WCI   5
WAUKESHA       CLEAR     14   9  79 W9        30.42R WCI   2
MILWAUKEE/TIMM CLEAR     14   7  73 W5        30.42R WCI   6
RACINE         CLEAR     13   5  70 W7        30.43R WCI   3
BURLINGTON     CLEAR      6   2  84 SW5       30.43R WCI  -3
KENOSHA        CLEAR      7   3  84 W9        30.42R WCI  -7
FOND DU LAC    CLEAR     14   6  70 W8        30.39R WCI   3
SHEBOYGAN      CLEAR     15   6  67 W9        30.38R WCI   3
WEST BEND      CLEAR     18   9  68 W9        30.39R WCI   6
JUNEAU         CLEAR     10   6  86 W3        30.41R
$$

LSZ147-162-021200-
LAKE SUPERIOR

STATION/POSITION TIME  TEMP    WIND        PRES    WAVE
                       AIR SEA DIR/SP/G            HT/PER
                 (UTC) (F)     (DEG/KT/KT) (MB)    (FT/S)
DEVILS ISLAND    1100   17     280/ 13/ 16 1029.8R
PORT WING        1040   12     220/  6/ 10 1029.1R
SAXON HARBOR     1000   14     200/  7/  9 1028.4R
$$

LMZ867-665-643>646-021200-
LAKE MICHIGAN

STATION/POSITION TIME  TEMP    WIND        PRES    WAVE
                       AIR SEA DIR/SP/G            HT/PER
                 (UTC) (F)     (DEG/KT/KT) (MB)    (FT/S)
NORTHPORT PIER   1105   17     290/  9/ 19 1027.4R
SISTER BAY       1013   12     290/ 10/ 11   N/A
KEWAUNEE LAKESHO 1000   16     290/  6/ 10 1026.0R
SHEBOYGAN LAKESH 1100   17     270/  9/ 12 1030.4R
PORT WASHINGTON  1000   19     290/  7/ 11 1029.1R
MILWAUKEE LAKESH 1100   17     280/ 10/ 13   N/A
KENOSHA   LAKESH 1100   16     260/ 10/ 12 1030.5R
$$

TC  - TEMPERATURE IN CELSIUS
VSB - VISIBILITY IN STATUTE MILES
WCI - WIND CHILL INDEX
HX  - HEAT INDEX



USA.gov is the U.S. government's official web portal to all federal, state and local government web resources and services.